Time,TemperatureF,DewpointF,PressureIn,WindDirection,WindDirectionDegrees,WindSpeedMPH,WindSpeedGustMPH,Humidity,HourlyPrecipIn,Conditions,Clouds,dailyrainin,SolarRadiationWatts/m^2,SoftwareType,DateUTC
2013-02-02 00:00:00,18.5,6.9,30.38,West,271,4.0,4.0,60,0.00,,,0.00,0,Wunderground v.1.15,2013-02-02 05:00:00,
2013-02-02 00:03:00,18.5,6.9,30.38,West,271,3.0,4.0,60,0.00,,,0.00,0,Wunderground v.1.15,2013-02-02 05:03:00,
2013-02-02 00:04:00,18.5,6.9,30.38,SSE,156,2.0,4.0,60,0.00,,,0.00,0,Wunderground v.1.15,2013-02-02 05:04:00,
2013-02-02 00:08:00,18.4,6.8,30.38,West,271,2.0,6.0,60,0.00,,,0.00,0,Wunderground v.1.15,2013-02-02 05:08:00,
2013-02-02 00:14:00,18.3,7.1,30.38,WSW,241,3.0,6.0,61,0.00,,,0.00,0,Wunderground v.1.15,2013-02-02 05:14:00,
2013-02-02 00:19:00,18.2,7.0,30.37,West,277,3.0,6.0,61,0.00,,,0.00,0,Wunderground v.1.15,2013-02-02 05:19:00,
2013-02-02 00:25:00,18.1,6.9,30.38,WNW,285,3.0,5.0,61,0.00,,,0.00,0,Wunderground v.1.15,2013-02-02 05:25:00,
2013-02-02 00:31:00,18.0,6.8,30.38,West,266,4.0,6.0,61,0.00,,,0.00,0,Wunderground v.1.15,2013-02-02 05:31:00,
2013-02-02 00:36:00,17.9,6.7,30.38,WNW,296,5.0,6.0,61,0.00,,,0.00,0,Wunderground v.1.15,2013-02-02 05:36:00,
2013-02-02 00:41:00,17.8,7.0,30.38,West,271,5.0,6.0,62,0.00,,,0.00,0,Wunderground v.1.15,2013-02-02 05:41:00,
2013-02-02 00:47:00,17.8,7.0,30.38,WNW,282,4.0,6.0,62,0.00,,,0.00,0,Wunderground v.1.15,2013-02-02 05:47:00,
2013-02-02 00:53:00,17.6,7.1,30.38,WSW,244,4.0,5.0,63,0.00,,,0.00,0,Wunderground v.1.15,2013-02-02 05:53:00,
2013-02-02 00:58:00,17.6,7.1,30.38,West,269,3.0,5.0,63,0.00,,,0.00,0,Wunderground v.1.15,2013-02-02 05:58:00,
2013-02-02 01:04:00,17.5,7.0,30.38,WNW,298,3.0,8.0,63,0.00,,,0.00,0,Wunderground v.1.15,2013-02-02 06:04:00,
2013-02-02 01:10:00,17.5,7.4,30.38,West,278,4.0,4.0,64,0.00,,,0.00,0,Wunderground v.1.15,2013-02-02 06:10:00,
2013-02-02 01:15:00,17.5,7.4,30.38,NW,306,3.0,4.0,64,0.00,,,0.00,0,Wunderground v.1.15,2013-02-02 06:15:00,
2013-02-02 01:21:00,17.3,7.2,30.37,WNW,291,4.0,4.0,64,0.00,,,0.00,0,Wunderground v.1.15,2013-02-02 06:21:00,
2013-02-02 01:27:00,17.4,7.3,30.37,WNW,291,3.0,4.0,64,0.00,,,0.00,0,Wunderground v.1.15,2013-02-02 06:27:00,
2013-02-02 01:33:00,17.3,7.2,30.38,NW,304,3.0,7.0,64,0.00,,,0.00,0,Wunderground v.1.15,2013-02-02 06:33:00,
2013-02-02 01:39:00,17.2,7.4,30.38,West,277,3.0,7.0,65,0.00,,,0.00,0,Wunderground v.1.15,2013-02-02 06:39:00,
2013-02-02 01:44:00,17.2,7.4,30.38,West,275,2.0,3.0,65,0.00,,,0.00,0,Wunderground v.1.15,2013-02-02 06:44:00,
2013-02-02 01:50:00,17.1,7.3,30.38,West,268,2.0,2.0,65,0.00,,,0.00,0,Wunderground v.1.15,2013-02-02 06:50:00,
2013-02-02 01:55:00,17.0,7.3,30.38,West,263,2.0,2.0,65,0.00,,,0.00,0,Wunderground v.1.15,2013-02-02 06:55:00,
2013-02-02 02:01:00,17.0,7.3,30.38,SE,146,2.0,2.0,65,0.00,,,0.00,0,Wunderground v.1.15,2013-02-02 07:01:00,
2013-02-02 02:06:00,17.0,7.3,30.39,SE,127,3.0,4.0,65,0.00,,,0.00,0,Wunderground v.1.15,2013-02-02 07:06:00,
2013-02-02 02:12:00,16.9,7.5,30.39,SE,142,4.0,4.0,66,0.00,,,0.00,0,Wunderground v.1.15,2013-02-02 07:12:00,
2013-02-02 02:17:00,16.9,7.5,30.39,SW,217,3.0,4.0,66,0.00,,,0.00,0,Wunderground v.1.15,2013-02-02 07:17:00,
2013-02-02 02:23:00,16.8,7.7,30.39,SSE,161,2.0,2.0,67,0.00,,,0.00,0,Wunderground v.1.15,2013-02-02 07:23:00,
2013-02-02 02:29:00,16.8,7.7,30.39,West,273,2.0,2.0,67,0.00,,,0.00,0,Wunderground v.1.15,2013-02-02 07:29:00,
2013-02-02 02:35:00,16.8,8.1,30.39,South,173,2.0,4.0,68,0.00,,,0.00,0,Wunderground v.1.15,2013-02-02 07:35:00,
2013-02-02 02:41:00,16.7,8.3,30.39,SW,229,2.0,2.0,69,0.00,,,0.00,0,Wunderground v.1.15,2013-02-02 07:41:00,
2013-02-02 02:47:00,16.6,8.2,30.39,WSW,257,2.0,5.0,69,0.00,,,0.00,0,Wunderground v.1.15,2013-02-02 07:47:00,
2013-02-02 02:52:00,16.6,8.5,30.39,West,261,2.0,3.0,70,0.00,,,0.00,0,Wunderground v.1.15,2013-02-02 07:52:00,
2013-02-02 02:57:00,16.6,8.5,30.38,ESE,110,3.0,5.0,70,0.00,,,0.00,0,Wunderground v.1.15,2013-02-02 07:57:00,
2013-02-02 03:06:00,16.7,8.9,30.39,SE,130,2.0,4.0,71,0.00,,,0.00,0,Wunderground v.1.15,2013-02-02 08:06:00,
2013-02-02 03:12:00,16.7,8.6,30.39,WNW,284,2.0,6.0,70,0.00,,,0.00,0,Wunderground v.1.15,2013-02-02 08:12:00,
2013-02-02 03:17:00,16.7,8.3,30.39,West,268,3.0,6.0,69,0.00,,,0.00,0,Wunderground v.1.15,2013-02-02 08:17:00,
2013-02-02 03:23:00,16.8,8.4,30.39,ESE,112,4.0,5.0,69,0.00,,,0.00,0,Wunderground v.1.15,2013-02-02 08:23:00,
2013-02-02 03:29:00,16.9,8.2,30.38,WSW,240,3.0,5.0,68,0.00,,,0.00,0,Wunderground v.1.15,2013-02-02 08:29:00,
2013-02-02 03:34:00,16.9,8.2,30.38,SW,226,4.0,6.0,68,0.00,,,0.00,0,Wunderground v.1.15,2013-02-02 08:34:00,
2013-02-02 03:40:00,16.8,8.1,30.38,West,265,4.0,4.0,68,0.00,,,0.00,0,Wunderground v.1.15,2013-02-02 08:40:00,
2013-02-02 03:46:00,16.7,7.6,30.38,ESE,122,3.0,5.0,67,0.00,,,0.00,0,Wunderground v.1.15,2013-02-02 08:46:00,
2013-02-02 03:52:00,16.5,7.8,30.38,SW,234,3.0,4.0,68,0.00,,,0.00,0,Wunderground v.1.15,2013-02-02 08:52:00,
2013-02-02 03:57:00,16.5,7.4,30.38,West,281,4.0,6.0,67,0.00,,,0.00,0,Wunderground v.1.15,2013-02-02 08:57:00,
2013-02-02 04:03:00,16.4,7.3,30.38,SSE,161,5.0,7.0,67,0.00,,,0.00,0,Wunderground v.1.15,2013-02-02 09:03:00,
2013-02-02 04:08:00,16.3,6.9,30.39,SE,131,5.0,7.0,66,0.00,,,0.00,0,Wunderground v.1.15,2013-02-02 09:08:00,
2013-02-02 04:14:00,16.1,6.7,30.39,SE,129,4.0,8.0,66,0.00,,,0.00,0,Wunderground v.1.15,2013-02-02 09:14:00,
2013-02-02 04:19:00,16.1,6.7,30.38,SE,143,4.0,8.0,66,0.00,,,0.00,0,Wunderground v.1.15,2013-02-02 09:19:00,
2013-02-02 04:25:00,16.0,6.6,30.38,WSW,250,3.0,5.0,66,0.00,,,0.00,0,Wunderground v.1.15,2013-02-02 09:25:00,
2013-02-02 04:31:00,15.9,6.5,30.38,WNW,296,3.0,6.0,66,0.00,,,0.00,0,Wunderground v.1.15,2013-02-02 09:31:00,
2013-02-02 04:36:00,15.8,6.4,30.38,SSE,150,4.0,6.0,66,0.00,,,0.00,0,Wunderground v.1.15,2013-02-02 09:36:00,
2013-02-02 04:41:00,15.7,6.0,30.38,WSW,239,4.0,5.0,65,0.00,,,0.00,0,Wunderground v.1.15,2013-02-02 09:41:00,
2013-02-02 04:47:00,15.7,6.3,30.39,West,259,4.0,7.0,66,0.00,,,0.00,0,Wunderground v.1.15,2013-02-02 09:47:00,
2013-02-02 04:53:00,15.7,6.3,30.38,WSW,247,3.0,4.0,66,0.00,,,0.00,0,Wunderground v.1.15,2013-02-02 09:53:00,
2013-02-02 04:59:00,15.6,6.3,30.38,West,259,3.0,4.0,66,0.00,,,0.00,0,Wunderground v.1.15,2013-02-02 09:59:00,
2013-02-02 05:04:00,15.5,6.2,30.38,WNW,283,4.0,6.0,66,0.00,,,0.00,0,Wunderground v.1.15,2013-02-02 10:04:00,
2013-02-02 05:10:00,15.5,5.8,30.38,West,260,5.0,6.0,65,0.00,,,0.00,0,Wunderground v.1.15,2013-02-02 10:10:00,
2013-02-02 05:15:00,15.4,5.7,30.38,West,263,5.0,8.0,65,0.00,,,0.00,0,Wunderground v.1.15,2013-02-02 10:15:00,
2013-02-02 05:21:00,15.4,5.7,30.37,WNW,296,4.0,5.0,65,0.00,,,0.00,0,Wunderground v.1.15,2013-02-02 10:21:00,
2013-02-02 05:27:00,15.3,5.6,30.38,West,262,4.0,6.0,65,0.00,,,0.00,0,Wunderground v.1.15,2013-02-02 10:27:00,
2013-02-02 05:33:00,15.3,5.6,30.38,West,268,4.0,6.0,65,0.00,,,0.00,0,Wunderground v.1.15,2013-02-02 10:33:00,
2013-02-02 05:38:00,15.2,5.5,30.37,WSW,254,3.0,6.0,65,0.00,,,0.00,0,Wunderground v.1.15,2013-02-02 10:38:00,
2013-02-02 05:44:00,15.2,5.9,30.37,South,169,2.0,4.0,66,0.00,,,0.00,0,Wunderground v.1.15,2013-02-02 10:44:00,
2013-02-02 05:49:00,15.1,5.8,30.37,SE,131,3.0,5.0,66,0.00,,,0.00,0,Wunderground v.1.15,2013-02-02 10:49:00,
2013-02-02 05:55:00,15.0,6.0,30.37,SE,136,2.0,4.0,67,0.00,,,0.00,0,Wunderground v.1.15,2013-02-02 10:55:00,
2013-02-02 06:01:00,14.9,6.2,30.37,SSW,200,3.0,3.0,68,0.00,,,0.00,0,Wunderground v.1.15,2013-02-02 11:01:00,
2013-02-02 06:06:00,15.0,6.0,30.37,SSW,203,3.0,3.0,67,0.00,,,0.00,0,Wunderground v.1.15,2013-02-02 11:06:00,
2013-02-02 06:11:00,14.9,5.9,30.37,ESE,121,2.0,2.0,67,0.00,,,0.00,0,Wunderground v.1.15,2013-02-02 11:11:00,
2013-02-02 06:17:00,14.8,5.8,30.37,SE,132,4.0,7.0,67,0.00,,,0.00,0,Wunderground v.1.15,2013-02-02 11:17:00,
2013-02-02 06:22:00,14.7,6.0,30.37,SE,136,5.0,5.0,68,0.00,,,0.00,0,Wunderground v.1.15,2013-02-02 11:22:00,
2013-02-02 06:28:00,14.6,6.0,30.37,SE,131,5.0,7.0,68,0.00,,,0.00,0,Wunderground v.1.15,2013-02-02 11:28:00,
2013-02-02 06:33:00,14.5,5.9,30.36,SE,145,5.0,6.0,68,0.00,,,0.00,0,Wunderground v.1.15,2013-02-02 11:33:00,
2013-02-02 06:39:00,14.5,5.9,30.36,SSE,157,4.0,7.0,68,0.00,,,0.00,0,Wunderground v.1.15,2013-02-02 11:39:00,
2013-02-02 06:44:00,14.5,5.9,30.37,SE,128,3.0,4.0,68,0.00,,,0.00,0,Wunderground v.1.15,2013-02-02 11:44:00,
2013-02-02 06:49:00,14.5,6.2,30.37,SE,141,2.0,4.0,69,0.00,,,0.00,0,Wunderground v.1.15,2013-02-02 11:49:00,
2013-02-02 06:55:00,14.5,6.5,30.37,WSW,240,1.0,2.0,70,0.00,,,0.00,0,Wunderground v.1.15,2013-02-02 11:55:00,
2013-02-02 07:00:00,14.4,6.4,30.37,SE,144,1.0,1.0,70,0.00,,,0.00,0,Wunderground v.1.15,2013-02-02 12:00:00,
2013-02-02 07:06:00,14.4,6.4,30.37,SE,142,2.0,5.0,70,0.00,,,0.00,0,Wunderground v.1.15,2013-02-02 12:06:00,
2013-02-02 07:12:00,14.4,6.7,30.38,West,265,2.0,2.0,71,0.00,,,0.00,0,Wunderground v.1.15,2013-02-02 12:12:00,
2013-02-02 07:18:00,14.4,6.7,30.37,West,272,2.0,5.0,71,0.00,,,0.00,5,Wunderground v.1.15,2013-02-02 12:18:00,
2013-02-02 07:24:00,14.3,6.3,30.37,SSE,155,4.0,5.0,70,0.00,,,0.00,9,Wunderground v.1.15,2013-02-02 12:24:00,
2013-02-02 07:29:00,14.3,6.6,30.37,SE,142,3.0,5.0,71,0.00,,,0.00,12,Wunderground v.1.15,2013-02-02 12:29:00,
2013-02-02 07:35:00,14.4,6.7,30.38,NNE,31,3.0,5.0,71,0.00,,,0.00,14,Wunderground v.1.15,2013-02-02 12:35:00,
2013-02-02 07:41:00,14.4,6.4,30.37,SE,140,2.0,7.0,70,0.00,,,0.00,18,Wunderground v.1.15,2013-02-02 12:41:00,
2013-02-02 07:46:00,14.5,6.5,30.36,SE,133,2.0,7.0,70,0.00,,,0.00,19,Wunderground v.1.15,2013-02-02 12:46:00,
2013-02-02 07:52:00,14.6,6.3,30.37,SSE,154,4.0,7.0,69,0.00,,,0.00,23,Wunderground v.1.15,2013-02-02 12:52:00,
2013-02-02 07:57:00,14.7,6.7,30.37,SE,146,4.0,7.0,70,0.00,,,0.00,25,Wunderground v.1.15,2013-02-02 12:57:00,
2013-02-02 08:03:00,14.8,6.5,30.36,SE,125,4.0,7.0,69,0.00,,,0.00,26,Wunderground v.1.15,2013-02-02 13:03:00,
2013-02-02 08:09:00,14.9,6.9,30.37,West,279,4.0,7.0,70,0.00,,,0.00,32,Wunderground v.1.15,2013-02-02 13:09:00,
2013-02-02 08:15:00,15.1,6.8,30.37,WSW,242,4.0,7.0,69,0.00,,,0.00,39,Wunderground v.1.15,2013-02-02 13:15:00,
2013-02-02 08:21:00,15.4,6.7,30.36,SE,138,5.0,6.0,68,0.00,,,0.00,46,Wunderground v.1.15,2013-02-02 13:21:00,
2013-02-02 08:26:00,15.6,6.9,30.36,SE,128,4.0,9.0,68,0.00,,,0.00,35,Wunderground v.1.15,2013-02-02 13:26:00,
2013-02-02 08:31:00,15.7,6.7,30.36,SSE,157,5.0,5.0,67,0.00,,,0.00,49,Wunderground v.1.15,2013-02-02 13:31:00,
2013-02-02 08:37:00,15.7,6.3,30.36,ESE,120,7.0,11.0,66,0.00,,,0.00,84,Wunderground v.1.15,2013-02-02 13:37:00,
2013-02-02 08:43:00,16.2,6.8,30.36,East,101,7.0,7.0,66,0.00,,,0.00,264,Wunderground v.1.15,2013-02-02 13:43:00,
2013-02-02 08:49:00,16.4,6.7,30.36,West,272,5.0,9.0,65,0.00,,,0.00,155,Wunderground v.1.15,2013-02-02 13:49:00,
2013-02-02 08:55:00,16.3,6.2,30.35,SE,132,7.0,10.0,64,0.00,,,0.00,142,Wunderground v.1.15,2013-02-02 13:55:00,
2013-02-02 09:00:00,16.6,6.2,30.36,SE,138,8.0,9.0,63,0.00,,,0.00,304,Wunderground v.1.15,2013-02-02 14:00:00,
2013-02-02 09:06:00,16.9,6.5,30.36,SSE,163,7.0,9.0,63,0.00,,,0.00,236,Wunderground v.1.15,2013-02-02 14:06:00,
2013-02-02 09:11:00,17.1,6.7,30.35,WSW,246,6.0,6.0,63,0.00,,,0.00,392,Wunderground v.1.15,2013-02-02 14:11:00,
2013-02-02 09:17:00,17.2,6.0,30.35,WNW,284,6.0,12.0,61,0.00,,,0.00,295,Wunderground v.1.15,2013-02-02 14:17:00,
2013-02-02 09:22:00,17.2,6.4,30.35,South,175,7.0,11.0,62,0.00,,,0.00,204,Wunderground v.1.15,2013-02-02 14:22:00,
2013-02-02 09:28:00,17.2,6.4,30.35,SSW,196,7.0,16.0,62,0.00,,,0.00,223,Wunderground v.1.15,2013-02-02 14:28:00,
2013-02-02 09:34:00,17.4,6.2,30.34,East,94,6.0,7.0,61,0.00,,,0.00,192,Wunderground v.1.15,2013-02-02 14:34:00,
2013-02-02 09:39:00,17.4,6.2,30.34,SW,220,5.0,7.0,61,0.00,,,0.00,162,Wunderground v.1.15,2013-02-02 14:39:00,
2013-02-02 09:45:00,17.3,6.5,30.34,SE,136,6.0,12.0,62,0.00,,,0.00,181,Wunderground v.1.15,2013-02-02 14:45:00,
2013-02-02 09:50:00,17.3,6.5,30.34,SSE,159,7.0,7.0,62,0.00,,,0.00,190,Wunderground v.1.15,2013-02-02 14:50:00,
2013-02-02 09:56:00,17.1,6.3,30.34,WSW,254,8.0,16.0,62,0.00,,,0.00,183,Wunderground v.1.15,2013-02-02 14:56:00,
2013-02-02 10:01:00,17.5,7.0,30.34,ESE,118,7.0,8.0,63,0.00,,,0.00,185,Wunderground v.1.15,2013-02-02 15:01:00,
2013-02-02 10:06:00,17.7,6.9,30.34,SSW,194,5.0,8.0,62,0.00,,,0.00,206,Wunderground v.1.15,2013-02-02 15:06:00,
2013-02-02 10:12:00,18.1,7.3,30.34,South,175,4.0,4.0,62,0.00,,,0.00,206,Wunderground v.1.15,2013-02-02 15:12:00,
2013-02-02 10:18:00,18.0,6.8,30.33,SE,138,5.0,9.0,61,0.00,,,0.00,169,Wunderground v.1.15,2013-02-02 15:18:00,
2013-02-02 10:24:00,18.0,7.2,30.33,SE,136,5.0,11.0,62,0.00,,,0.00,155,Wunderground v.1.15,2013-02-02 15:24:00,
2013-02-02 10:29:00,18.1,7.3,30.33,West,259,4.0,11.0,62,0.00,,,0.00,162,Wunderground v.1.15,2013-02-02 15:29:00,
2013-02-02 10:34:00,18.2,7.3,30.33,SSE,166,5.0,10.0,62,0.00,,,0.00,172,Wunderground v.1.15,2013-02-02 15:34:00,
2013-02-02 10:40:00,18.2,7.3,30.33,SE,140,5.0,5.0,62,0.00,,,0.00,158,Wunderground v.1.15,2013-02-02 15:40:00,
2013-02-02 10:45:00,18.3,7.4,30.33,West,263,5.0,7.0,62,0.00,,,0.00,162,Wunderground v.1.15,2013-02-02 15:45:00,
2013-02-02 10:51:00,18.5,6.9,30.33,West,270,6.0,6.0,60,0.00,,,0.00,135,Wunderground v.1.15,2013-02-02 15:51:00,
2013-02-02 10:57:00,18.6,7.0,30.33,West,276,5.0,9.0,60,0.00,,,0.00,128,Wunderground v.1.15,2013-02-02 15:57:00,
2013-02-02 11:03:00,18.5,7.3,30.32,SE,128,6.0,10.0,61,0.00,,,0.00,125,Wunderground v.1.15,2013-02-02 16:03:00,
2013-02-02 11:09:00,18.4,7.2,30.32,ESE,112,7.0,15.0,61,0.00,,,0.00,109,Wunderground v.1.15,2013-02-02 16:09:00,
2013-02-02 11:15:00,18.2,7.3,30.32,West,265,7.0,11.0,62,0.00,,,0.00,113,Wunderground v.1.15,2013-02-02 16:15:00,
2013-02-02 11:21:00,18.4,7.5,30.31,ESE,123,6.0,8.0,62,0.00,,,0.00,120,Wunderground v.1.15,2013-02-02 16:21:00,
2013-02-02 11:27:00,18.1,7.3,30.31,ESE,121,9.0,11.0,62,0.00,,,0.00,139,Wunderground v.1.15,2013-02-02 16:27:00,
2013-02-02 11:33:00,18.4,7.5,30.31,ESE,111,8.0,10.0,62,0.00,,,0.00,132,Wunderground v.1.15,2013-02-02 16:33:00,
2013-02-02 11:39:00,18.6,7.4,30.31,SE,130,7.0,10.0,61,0.00,,,0.00,113,Wunderground v.1.15,2013-02-02 16:39:00,
2013-02-02 11:45:00,18.8,7.9,30.31,ESE,115,5.0,6.0,62,0.00,,,0.00,109,Wunderground v.1.15,2013-02-02 16:45:00,
2013-02-02 11:50:00,18.8,7.6,30.31,ESE,117,6.0,12.0,61,0.00,,,0.00,116,Wunderground v.1.15,2013-02-02 16:50:00,
2013-02-02 11:56:00,19.0,7.7,30.30,SW,216,6.0,12.0,61,0.00,,,0.00,137,Wunderground v.1.15,2013-02-02 16:56:00,
2013-02-02 12:02:00,19.1,7.1,30.30,SE,137,5.0,13.0,59,0.00,,,0.00,148,Wunderground v.1.15,2013-02-02 17:02:00,
2013-02-02 12:07:00,19.1,7.1,30.30,SE,143,7.0,13.0,59,0.00,,,0.00,162,Wunderground v.1.15,2013-02-02 17:07:00,
2013-02-02 12:12:00,19.2,6.8,30.29,SSE,161,6.0,10.0,58,0.00,,,0.00,137,Wunderground v.1.15,2013-02-02 17:12:00,
2013-02-02 12:18:00,19.3,7.7,30.28,WSW,253,5.0,10.0,60,0.00,,,0.00,105,Wunderground v.1.15,2013-02-02 17:18:00,
2013-02-02 12:23:00,19.4,7.4,30.27,West,262,5.0,5.0,59,0.00,,,0.00,100,Wunderground v.1.15,2013-02-02 17:23:00,
2013-02-02 12:29:00,19.4,7.4,30.27,West,270,6.0,8.0,59,0.00,,,0.00,158,Wunderground v.1.15,2013-02-02 17:29:00,
2013-02-02 12:35:00,19.6,7.6,30.26,SE,146,5.0,7.0,59,0.00,,,0.00,167,Wunderground v.1.15,2013-02-02 17:35:00,
2013-02-02 12:40:00,19.4,6.6,30.26,SE,143,6.0,9.0,57,0.00,,,0.00,162,Wunderground v.1.15,2013-02-02 17:40:00,
2013-02-02 12:46:00,19.3,6.9,30.26,WNW,283,7.0,10.0,58,0.00,,,0.00,149,Wunderground v.1.15,2013-02-02 17:46:00,
2013-02-02 12:51:00,19.5,7.1,30.25,SW,230,6.0,6.0,58,0.00,,,0.00,153,Wunderground v.1.15,2013-02-02 17:51:00,
2013-02-02 12:57:00,19.9,7.1,30.25,ESE,123,5.0,6.0,57,0.00,,,0.00,141,Wunderground v.1.15,2013-02-02 17:57:00,
2013-02-02 13:03:00,20.1,7.7,30.25,ESE,117,4.0,4.0,58,0.00,,,0.00,171,Wunderground v.1.15,2013-02-02 18:03:00,
2013-02-02 13:09:00,19.9,6.7,30.24,SE,144,6.0,9.0,56,0.00,,,0.00,169,Wunderground v.1.15,2013-02-02 18:09:00,
2013-02-02 13:15:00,20.2,7.4,30.24,SSE,163,5.0,6.0,57,0.00,,,0.00,197,Wunderground v.1.15,2013-02-02 18:15:00,
2013-02-02 13:21:00,20.1,6.9,30.23,SE,126,5.0,10.0,56,0.00,,,0.00,200,Wunderground v.1.15,2013-02-02 18:21:00,
2013-02-02 13:26:00,20.1,6.9,30.23,SSE,158,7.0,10.0,56,0.00,,,0.00,202,Wunderground v.1.15,2013-02-02 18:26:00,
2013-02-02 13:32:00,20.7,7.9,30.22,SE,140,5.0,7.0,57,0.00,,,0.00,209,Wunderground v.1.15,2013-02-02 18:32:00,
2013-02-02 13:38:00,20.6,7.0,30.22,ESE,123,6.0,12.0,55,0.00,,,0.00,188,Wunderground v.1.15,2013-02-02 18:38:00,
2013-02-02 13:43:00,20.5,7.3,30.22,SE,131,8.0,9.0,56,0.00,,,0.00,174,Wunderground v.1.15,2013-02-02 18:43:00,
2013-02-02 13:49:00,21.1,7.8,30.21,ESE,119,6.0,9.0,56,0.00,,,0.00,174,Wunderground v.1.15,2013-02-02 18:49:00,
2013-02-02 13:55:00,21.1,7.4,30.21,ESE,121,5.0,7.0,55,0.00,,,0.00,188,Wunderground v.1.15,2013-02-02 18:55:00,
2013-02-02 14:00:00,21.1,7.0,30.21,SE,131,7.0,7.0,54,0.00,,,0.00,251,Wunderground v.1.15,2013-02-02 19:00:00,
2013-02-02 14:06:00,21.3,7.2,30.21,SE,133,8.0,8.0,54,0.00,,,0.00,267,Wunderground v.1.15,2013-02-02 19:06:00,
2013-02-02 14:11:00,21.6,7.1,30.20,SE,143,7.0,9.0,53,0.00,,,0.00,243,Wunderground v.1.15,2013-02-02 19:11:00,
2013-02-02 14:17:00,21.3,6.8,30.20,ESE,117,8.0,11.0,53,0.00,,,0.00,207,Wunderground v.1.15,2013-02-02 19:17:00,
2013-02-02 14:23:00,21.3,7.2,30.20,SE,136,8.0,10.0,54,0.00,,,0.00,185,Wunderground v.1.15,2013-02-02 19:23:00,
2013-02-02 14:28:00,21.5,7.4,30.20,SE,125,7.0,10.0,54,0.00,,,0.00,179,Wunderground v.1.15,2013-02-02 19:28:00,
2013-02-02 14:33:00,21.9,7.8,30.20,SE,132,6.0,9.0,54,0.00,,,0.00,197,Wunderground v.1.15,2013-02-02 19:33:00,
2013-02-02 14:39:00,21.7,7.6,30.20,SE,146,6.0,11.0,54,0.00,,,0.00,204,Wunderground v.1.15,2013-02-02 19:39:00,
2013-02-02 14:44:00,21.8,7.7,30.20,SE,128,6.0,8.0,54,0.00,,,0.00,236,Wunderground v.1.15,2013-02-02 19:44:00,
2013-02-02 14:50:00,22.2,8.1,30.20,SSE,167,6.0,6.0,54,0.00,,,0.00,204,Wunderground v.1.15,2013-02-02 19:50:00,
2013-02-02 14:56:00,22.2,7.6,30.19,SE,144,6.0,10.0,53,0.00,,,0.00,181,Wunderground v.1.15,2013-02-02 19:56:00,
2013-02-02 15:02:00,22.3,8.6,30.19,ESE,113,6.0,9.0,55,0.00,,,0.00,179,Wunderground v.1.15,2013-02-02 20:02:00,
2013-02-02 15:07:00,22.4,8.2,30.19,SE,126,6.0,9.0,54,0.00,,,0.00,158,Wunderground v.1.15,2013-02-02 20:07:00,
2013-02-02 15:12:00,22.5,8.3,30.19,SE,137,6.0,9.0,54,0.00,,,0.00,146,Wunderground v.1.15,2013-02-02 20:12:00,
2013-02-02 15:18:00,22.5,8.7,30.19,SE,128,6.0,9.0,55,0.00,,,0.00,127,Wunderground v.1.15,2013-02-02 20:18:00,
2013-02-02 15:24:00,22.5,8.7,30.19,ESE,116,7.0,10.0,55,0.00,,,0.00,114,Wunderground v.1.15,2013-02-02 20:24:00,
2013-02-02 15:29:00,22.5,9.1,30.19,SSE,152,7.0,10.0,56,0.00,,,0.00,102,Wunderground v.1.15,2013-02-02 20:29:00,
2013-02-02 15:35:00,22.4,8.7,30.19,ESE,119,7.0,9.0,55,0.00,,,0.00,93,Wunderground v.1.15,2013-02-02 20:35:00,
2013-02-02 15:41:00,22.5,9.1,30.18,South,173,7.0,9.0,56,0.00,,,0.00,90,Wunderground v.1.15,2013-02-02 20:41:00,
2013-02-02 15:47:00,22.6,9.2,30.18,SE,130,6.0,10.0,56,0.00,,,0.00,86,Wunderground v.1.15,2013-02-02 20:47:00,
2013-02-02 15:53:00,22.5,9.5,30.18,SSE,167,6.0,7.0,57,0.00,,,0.00,83,Wunderground v.1.15,2013-02-02 20:53:00,
2013-02-02 15:58:00,22.5,9.5,30.18,SE,137,5.0,7.0,57,0.00,,,0.00,77,Wunderground v.1.15,2013-02-02 20:58:00,
2013-02-02 16:04:00,22.7,9.7,30.17,SE,125,6.0,7.0,57,0.00,,,0.00,70,Wunderground v.1.15,2013-02-02 21:04:00,
2013-02-02 16:09:00,22.9,9.9,30.17,SE,130,5.0,7.0,57,0.00,,,0.00,60,Wunderground v.1.15,2013-02-02 21:09:00,
2013-02-02 16:15:00,22.8,10.2,30.17,SE,136,6.0,9.0,58,0.00,,,0.00,56,Wunderground v.1.15,2013-02-02 21:15:00,
2013-02-02 16:21:00,22.7,10.5,30.16,ESE,118,7.0,8.0,59,0.00,,,0.00,56,Wunderground v.1.15,2013-02-02 21:21:00,
2013-02-02 16:27:00,22.7,10.9,30.16,SSE,165,7.0,8.0,60,0.00,,,0.00,47,Wunderground v.1.15,2013-02-02 21:27:00,
2013-02-02 16:32:00,22.9,11.4,30.16,SE,132,6.0,11.0,61,0.00,,,0.00,40,Wunderground v.1.15,2013-02-02 21:32:00,
2013-02-02 16:38:00,22.7,11.6,30.16,SSE,147,6.0,11.0,62,0.00,,,0.00,30,Wunderground v.1.15,2013-02-02 21:38:00,
2013-02-02 16:44:00,22.6,11.9,30.16,SSE,159,6.0,6.0,63,0.00,,,0.00,25,Wunderground v.1.15,2013-02-02 21:44:00,
2013-02-02 16:49:00,22.5,12.1,30.16,SSE,148,6.0,11.0,64,0.00,,,0.00,21,Wunderground v.1.15,2013-02-02 21:49:00,
2013-02-02 16:55:00,22.5,12.1,30.16,SE,146,6.0,8.0,64,0.00,,,0.00,16,Wunderground v.1.15,2013-02-02 21:55:00,
2013-02-02 17:00:00,22.3,12.3,30.16,SSE,150,7.0,8.0,65,0.00,,,0.00,12,Wunderground v.1.15,2013-02-02 22:00:00,
2013-02-02 17:06:00,22.4,12.4,30.16,SE,145,7.0,8.0,65,0.00,,,0.00,9,Wunderground v.1.15,2013-02-02 22:06:00,
2013-02-02 17:12:00,22.5,12.5,30.16,SE,140,5.0,7.0,65,0.00,,,0.00,5,Wunderground v.1.15,2013-02-02 22:12:00,
2013-02-02 17:18:00,22.4,12.8,30.15,South,180,5.0,7.0,66,0.00,,,0.00,0,Wunderground v.1.15,2013-02-02 22:18:00,
2013-02-02 17:23:00,22.5,12.8,30.15,SE,128,5.0,8.0,66,0.00,,,0.00,0,Wunderground v.1.15,2013-02-02 22:23:00,
2013-02-02 17:28:00,22.4,12.4,30.15,SE,143,5.0,8.0,65,0.00,,,0.00,0,Wunderground v.1.15,2013-02-02 22:28:00,
2013-02-02 17:34:00,22.4,12.4,30.15,SSE,160,5.0,7.0,65,0.00,,,0.00,0,Wunderground v.1.15,2013-02-02 22:34:00,
2013-02-02 17:40:00,22.4,13.1,30.15,SE,140,5.0,5.0,67,0.00,,,0.00,0,Wunderground v.1.15,2013-02-02 22:40:00,
2013-02-02 17:45:00,22.3,12.7,30.15,SE,144,5.0,8.0,66,0.00,,,0.00,0,Wunderground v.1.15,2013-02-02 22:45:00,
2013-02-02 17:51:00,22.2,12.9,30.15,SSE,153,6.0,8.0,67,0.00,,,0.00,0,Wunderground v.1.15,2013-02-02 22:51:00,
2013-02-02 17:57:00,22.2,13.2,30.15,SSE,165,6.0,8.0,68,0.00,,,0.00,0,Wunderground v.1.15,2013-02-02 22:57:00,
2013-02-02 18:03:00,22.1,13.5,30.15,SE,141,6.0,8.0,69,0.00,,,0.00,0,Wunderground v.1.15,2013-02-02 23:03:00,
2013-02-02 18:09:00,22.0,13.7,30.15,SE,137,6.0,10.0,70,0.00,,,0.00,0,Wunderground v.1.15,2013-02-02 23:09:00,
2013-02-02 18:15:00,22.1,14.1,30.16,SE,134,4.0,5.0,71,0.00,,,0.00,0,Wunderground v.1.15,2013-02-02 23:15:00,
2013-02-02 18:21:00,22.1,14.4,30.16,SE,145,3.0,3.0,72,0.00,,,0.00,0,Wunderground v.1.15,2013-02-02 23:21:00,
2013-02-02 18:27:00,22.1,15.1,30.16,SE,128,4.0,8.0,74,0.00,,,0.00,0,Wunderground v.1.15,2013-02-02 23:27:00,
2013-02-02 18:33:00,22.0,15.6,30.16,SE,130,5.0,5.0,76,0.00,,,0.00,0,Wunderground v.1.15,2013-02-02 23:33:00,
2013-02-02 18:39:00,21.9,15.8,30.16,SE,135,5.0,7.0,77,0.00,,,0.00,0,Wunderground v.1.15,2013-02-02 23:39:00,
2013-02-02 18:45:00,21.7,15.9,30.16,SE,125,6.0,6.0,78,0.00,,,0.00,0,Wunderground v.1.15,2013-02-02 23:45:00,
2013-02-02 18:51:00,21.7,16.2,30.16,ESE,111,5.0,6.0,79,0.00,,,0.00,0,Wunderground v.1.15,2013-02-02 23:51:00,
2013-02-02 18:57:00,21.7,16.2,30.16,ESE,121,4.0,7.0,79,0.00,,,0.00,0,Wunderground v.1.15,2013-02-02 23:57:00,
2013-02-02 19:02:00,21.7,16.5,30.16,ESE,119,4.0,7.0,80,0.00,,,0.00,0,Wunderground v.1.15,2013-02-03 00:02:00,
2013-02-02 19:07:00,21.6,16.4,30.16,ESE,118,5.0,9.0,80,0.00,,,0.00,0,Wunderground v.1.15,2013-02-03 00:07:00,
2013-02-02 19:13:00,21.6,16.7,30.16,ESE,111,5.0,6.0,81,0.00,,,0.00,0,Wunderground v.1.15,2013-02-03 00:13:00,
2013-02-02 19:18:00,21.6,17.0,30.16,SE,131,4.0,6.0,82,0.00,,,0.00,0,Wunderground v.1.15,2013-02-03 00:18:00,
2013-02-02 19:24:00,21.6,17.0,30.16,SE,133,4.0,5.0,82,0.00,,,0.00,0,Wunderground v.1.15,2013-02-03 00:24:00,
2013-02-02 19:30:00,21.6,17.2,30.16,SE,132,5.0,5.0,83,0.00,,,0.00,0,Wunderground v.1.15,2013-02-03 00:30:00,
2013-02-02 19:36:00,21.6,17.5,30.16,ESE,118,5.0,6.0,84,0.00,,,0.00,0,Wunderground v.1.15,2013-02-03 00:36:00,
2013-02-02 19:41:00,21.5,17.4,30.16,ESE,120,5.0,5.0,84,0.00,,,0.00,0,Wunderground v.1.15,2013-02-03 00:41:00,
2013-02-02 19:47:00,21.5,17.7,30.16,SE,138,4.0,6.0,85,0.00,,,0.00,0,Wunderground v.1.15,2013-02-03 00:47:00,
2013-02-02 19:53:00,21.6,17.5,30.16,SSE,149,3.0,5.0,84,0.00,,,0.00,0,Wunderground v.1.15,2013-02-03 00:53:00,
2013-02-02 19:58:00,21.6,17.5,30.16,SE,132,3.0,5.0,84,0.00,,,0.00,0,Wunderground v.1.15,2013-02-03 00:58:00,
2013-02-02 20:03:00,21.7,17.9,30.16,SSE,148,2.0,3.0,85,0.00,,,0.00,0,Wunderground v.1.15,2013-02-03 01:03:00,
2013-02-02 20:09:00,21.7,17.6,30.16,SE,134,3.0,5.0,84,0.00,,,0.00,0,Wunderground v.1.15,2013-02-03 01:09:00,
2013-02-02 20:15:00,21.7,17.9,30.15,SE,142,3.0,5.0,85,0.00,,,0.00,0,Wunderground v.1.15,2013-02-03 01:15:00,
2013-02-02 20:20:00,21.7,18.2,30.15,SE,144,2.0,2.0,86,0.00,,,0.00,0,Wunderground v.1.15,2013-02-03 01:20:00,
2013-02-02 20:26:00,21.7,18.2,30.15,SE,139,3.0,5.0,86,0.00,,,0.00,0,Wunderground v.1.15,2013-02-03 01:26:00,
2013-02-02 20:32:00,21.7,18.2,30.15,SE,140,2.0,4.0,86,0.00,,,0.00,0,Wunderground v.1.15,2013-02-03 01:32:00,
2013-02-02 20:38:00,21.7,18.2,30.15,SE,131,2.0,5.0,86,0.00,,,0.00,0,Wunderground v.1.15,2013-02-03 01:38:00,
2013-02-02 20:43:00,21.7,18.2,30.15,SE,138,3.0,5.0,86,0.00,,,0.00,0,Wunderground v.1.15,2013-02-03 01:43:00,
2013-02-02 20:49:00,21.8,18.3,30.15,SSE,155,3.0,5.0,86,0.00,,,0.00,0,Wunderground v.1.15,2013-02-03 01:49:00,
2013-02-02 20:54:00,21.8,18.3,30.14,SSE,155,3.0,4.0,86,0.00,,,0.00,0,Wunderground v.1.15,2013-02-03 01:54:00,
2013-02-02 21:00:00,21.8,18.5,30.14,SE,144,2.0,2.0,87,0.00,,,0.00,0,Wunderground v.1.15,2013-02-03 02:00:00,
2013-02-02 21:06:00,21.9,18.6,30.14,SE,143,2.0,4.0,87,0.00,,,0.00,0,Wunderground v.1.15,2013-02-03 02:06:00,
2013-02-02 21:12:00,21.7,18.4,30.14,SSW,205,3.0,5.0,87,0.00,,,0.00,0,Wunderground v.1.15,2013-02-03 02:12:00,
2013-02-02 21:18:00,21.6,18.6,30.14,South,191,4.0,5.0,88,0.00,,,0.00,0,Wunderground v.1.15,2013-02-03 02:18:00,
2013-02-02 21:24:00,21.6,18.6,30.14,South,191,2.0,4.0,88,0.00,,,0.00,0,Wunderground v.1.15,2013-02-03 02:24:00,
2013-02-02 21:30:00,21.5,18.8,30.14,South,191,1.0,1.0,89,0.00,,,0.00,0,Wunderground v.1.15,2013-02-03 02:30:00,
2013-02-02 21:35:00,21.5,18.8,30.14,ESE,119,1.0,1.0,89,0.00,,,0.00,0,Wunderground v.1.15,2013-02-03 02:35:00,
2013-02-02 21:41:00,21.5,18.8,30.14,ESE,113,1.0,1.0,89,0.00,,,0.00,0,Wunderground v.1.15,2013-02-03 02:41:00,
2013-02-02 21:47:00,21.4,18.7,30.14,SE,133,1.0,2.0,89,0.00,,,0.00,0,Wunderground v.1.15,2013-02-03 02:47:00,
2013-02-02 21:53:00,21.4,18.7,30.14,ESE,113,1.0,1.0,89,0.00,,,0.00,0,Wunderground v.1.15,2013-02-03 02:53:00,
2013-02-02 21:59:00,21.3,18.6,30.14,ESE,117,1.0,3.0,89,0.00,,,0.00,0,Wunderground v.1.15,2013-02-03 02:59:00,
2013-02-02 22:04:00,21.3,18.6,30.14,ENE,68,1.0,2.0,89,0.00,,,0.00,0,Wunderground v.1.15,2013-02-03 03:04:00,
2013-02-02 22:10:00,21.2,18.5,30.14,NE,40,2.0,2.0,89,0.00,,,0.00,0,Wunderground v.1.15,2013-02-03 03:10:00,
2013-02-02 22:16:00,21.2,18.7,30.13,South,182,2.0,2.0,90,0.00,,,0.00,0,Wunderground v.1.15,2013-02-03 03:16:00,
2013-02-02 22:22:00,21.3,18.8,30.13,ENE,62,1.0,2.0,90,0.00,,,0.00,0,Wunderground v.1.15,2013-02-03 03:22:00,
2013-02-02 22:27:00,21.2,18.7,30.13,NE,40,1.0,2.0,90,0.00,,,0.00,0,Wunderground v.1.15,2013-02-03 03:27:00,
2013-02-02 22:33:00,21.2,18.7,30.13,NE,37,1.0,2.0,90,0.00,,,0.00,0,Wunderground v.1.15,2013-02-03 03:33:00,
2013-02-02 22:38:00,21.1,18.6,30.12,NE,44,1.0,2.0,90,0.00,,,0.00,0,Wunderground v.1.15,2013-02-03 03:38:00,
2013-02-02 22:44:00,21.1,18.6,30.12,NE,37,2.0,3.0,90,0.00,,,0.00,0,Wunderground v.1.15,2013-02-03 03:44:00,
2013-02-02 22:50:00,21.0,18.5,30.12,ENE,71,1.0,2.0,90,0.00,,,0.00,0,Wunderground v.1.15,2013-02-03 03:50:00,
2013-02-02 22:56:00,20.8,18.3,30.12,NE,34,1.0,2.0,90,0.00,,,0.00,0,Wunderground v.1.15,2013-02-03 03:56:00,
2013-02-02 23:02:00,20.7,18.2,30.12,NE,43,1.0,3.0,90,0.00,,,0.00,0,Wunderground v.1.15,2013-02-03 04:02:00,
2013-02-02 23:08:00,20.6,18.1,30.11,ESE,123,1.0,3.0,90,0.00,,,0.00,0,Wunderground v.1.15,2013-02-03 04:08:00,
2013-02-02 23:14:00,20.5,18.0,30.11,NE,50,1.0,4.0,90,0.00,,,0.00,0,Wunderground v.1.15,2013-02-03 04:14:00,
2013-02-02 23:19:00,20.4,17.9,30.11,NNE,29,2.0,4.0,90,0.00,,,0.00,0,Wunderground v.1.15,2013-02-03 04:19:00,
2013-02-02 23:25:00,20.4,17.9,30.11,NE,38,2.0,2.0,90,0.00,,,0.00,0,Wunderground v.1.15,2013-02-03 04:25:00,
2013-02-02 23:31:00,20.4,17.9,30.11,NE,39,1.0,2.0,90,0.00,,,0.00,0,Wunderground v.1.15,2013-02-03 04:31:00,
2013-02-02 23:37:00,20.4,17.9,30.11,NE,37,1.0,2.0,90,0.00,,,0.00,0,Wunderground v.1.15,2013-02-03 04:37:00,
2013-02-02 23:43:00,20.4,17.9,30.11,NE,41,1.0,2.0,90,0.00,,,0.00,0,Wunderground v.1.15,2013-02-03 04:43:00,
2013-02-02 23:48:00,20.5,18.3,30.11,NE,38,1.0,2.0,91,0.00,,,0.00,0,Wunderground v.1.15,2013-02-03 04:48:00,
2013-02-02 23:54:00,20.5,18.3,30.11,NE,37,1.0,2.0,91,0.00,,,0.00,0,Wunderground v.1.15,2013-02-03 04:54:00,